"Pseudo-MPEC" for P125r69

Created 2025 Jan 13 20:31:04 UT using Find_Orb

Click here for an explanation of pseudo-MPECs

 
 Astrometry: 
     P125r69* C2025 01 08.63568612 43 54.130+01 50 07.05   ~18KH 21.68wXNEOCPF51
     P125r69  C2025 01 08.64437512 43 56.882+01 49 49.25   ~18KH 21.86wXNEOCPF51
     P125r69  C2025 01 08.65303012 43 59.633+01 49 31.41   ~18KH 21.54wXNEOCPF51

Station data:
(F51) Pan-STARRS 1, Haleakala  (N20.707234 W156.255910)  US/Hawaii.
   Observers J. Bulger, T. Lowe, A. Schultz, M. Willman. Measurers K.
   Chambers, S. Chastel, T. de Boer, L. Denneau, J. Fairlamb, H. Flewelling,
   M. Huber, C.-C. Lin, E. Magnier, Y. Ramanjooloo, R. Wainscoat, R. Weryk.
   1.8-m Ritchey-Chrétien + CCD.

Orbital elements:  P125r69
   Perihelion 2025 Feb 21.19441 +/- 21.4 TT =  4:39:56 (JD 2460727.69441)
Epoch 2025 Jan  9.0 TT = JDT 2460684.5   Earth MOID: 0.0133   Ve: 0.0557
M 290.82586992 +/- 52               Me: 0.0905                   AutoNEOCP
n   1.60146037 +/- 1                Peri.  349.47540 +/- 60
a   0.72353340 +/- 0.302            Node   301.15119 +/- 44
e   0.9713296 +/- 0.234             Incl.  138.51662 +/- 60
P   0.615/224.791d         H 21.92  G  0.15   U 12.7  SR
q 0.02074393 +/- 0.36    Q 1.42632287 +/- 15.2            (J2000 ecliptic)
From 3 observations 2025 Jan. 8 (25.0 min); mean residual 0".02
Residuals in arcseconds: 
250108 F51  .02+  .01-    250108 F51  .03-  .03+    250108 F51  .02+  .01-    

Ephemerides (geocentric):
Date (UTC) HH   RA             Dec           delta  r     elong  mag " sig PA
---- --------  ------------   ------------  ------ ------ -----  --- --------
2025 01 13 21  13 36 07.293   -03 35 18.60  .14904 0.9948  90.0 20.6  61d  89
2025 01 13 22  13 36 52.652   -03 39 58.15  .14811 0.9943  89.9 20.6  61d  89
2025 01 13 23  13 37 38.587   -03 44 41.05  .14719 0.9937  89.7 20.6  61d  89
2025 01 14 00  13 38 25.106   -03 49 27.35  .14627 0.9932  89.5 20.6  61d  89
2025 01 14 01  13 39 12.222   -03 54 17.11  .14536 0.9926  89.4 20.6  61d  89
2025 01 14 02  13 39 59.943   -03 59 10.36  .14444 0.9921  89.2 20.6  61d  89
2025 01 14 03  13 40 48.281   -04 04 07.18  .14353 0.9915  89.0 20.6  61d  89
2025 01 14 04  13 41 37.247   -04 09 07.60  .14261 0.9910  88.8 20.6  61d  89
2025 01 14 05  13 42 26.853   -04 14 11.69  .14171 0.9904  88.6 20.6  61d  89
2025 01 14 06  13 43 17.108   -04 19 19.49  .14080 .98986  88.5 20.6  62d  89
2025 01 14 07  13 44 08.026   -04 24 31.07  .13989 .98930  88.3 20.5  62d  89
2025 01 14 08  13 44 59.617   -04 29 46.48  .13899 .98875  88.1 20.5  62d  88
2025 01 14 09  13 45 51.895   -04 35 05.78  .13809 .98819  87.9 20.5  62d  88
2025 01 14 10  13 46 44.871   -04 40 29.02  .13719 .98764  87.7 20.5  62d  88
2025 01 14 11  13 47 38.559   -04 45 56.26  .13629 .98708  87.5 20.5  62d  88
2025 01 14 12  13 48 32.970   -04 51 27.56  .13540 .98653  87.3 20.5  62d  88
2025 01 14 13  13 49 28.119   -04 57 02.98  .13451 .98597  87.1 20.5  62d  88
2025 01 14 14  13 50 24.018   -05 02 42.57  .13362 .98541  86.9 20.5  62d  88
2025 01 14 15  13 51 20.682   -05 08 26.41  .13273 .98485  86.7 20.5  62d  88
2025 01 14 16  13 52 18.124   -05 14 14.54  .13185 .98429  86.5 20.5  63d  88
2025 01 14 17  13 53 16.359   -05 20 07.04  .13097 .98374  86.2 20.5  63d  88
2025 01 14 18  13 54 15.400   -05 26 03.95  .13009 .98318  86.0 20.5  63d  88
2025 01 14 19  13 55 15.264   -05 32 05.35  .12921 .98262  85.8 20.5  63d  88
2025 01 14 20  13 56 15.965   -05 38 11.29  .12834 .98206  85.6 20.5  63d  88
2025 01 14 21  13 57 17.518   -05 44 21.84  .12747 .98149  85.3 20.5  63d  88
2025 01 14 22  13 58 19.939   -05 50 37.06  .12660 .98093  85.1 20.5  63d  88
2025 01 14 23  13 59 23.244   -05 56 57.02  .12574 .98037  84.9 20.5  63d  89
2025 01 15 00  14 00 27.450   -06 03 21.76  .12488 .97981  84.6 20.5  63d  89
2025 01 15 01  14 01 32.573   -06 09 51.37  .12402 .97924  84.4 20.5  63d  89
2025 01 15 02  14 02 38.630   -06 16 25.90  .12316 .97868  84.1 20.4  63d  89
2025 01 15 03  14 03 45.639   -06 23 05.41  .12231 .97812  83.9 20.4  64d  89
2025 01 15 04  14 04 53.616   -06 29 49.97  .12146 .97755  83.6 20.4  64d  89
2025 01 15 05  14 06 02.581   -06 36 39.64  .12062 .97699  83.3 20.4  64d  89
2025 01 15 06  14 07 12.550   -06 43 34.48  .11978 .97642  83.1 20.4  64d  89
2025 01 15 07  14 08 23.543   -06 50 34.55  .11894 .97586  82.8 20.4  64d  89
2025 01 15 08  14 09 35.579   -06 57 39.92  .11810 .97529  82.5 20.4  64d  89
2025 01 15 09  14 10 48.677   -07 04 50.65  .11727 .97472  82.2 20.4  64d  89
2025 01 15 10  14 12 02.856   -07 12 06.79  .11644 .97415  81.9 20.4  64d  89
2025 01 15 11  14 13 18.137   -07 19 28.40  .11562 .97359  81.6 20.4  64d  89
2025 01 15 12  14 14 34.539   -07 26 55.55  .11480 .97302  81.3 20.4  64d  89
2025 01 15 13  14 15 52.084   -07 34 28.28  .11399 .97245  81.0 20.4  64d  89
2025 01 15 14  14 17 10.791   -07 42 06.66  .11318 .97188  80.7 20.4  64d  89
2025 01 15 15  14 18 30.683   -07 49 50.73  .11237 .97131  80.4 20.4  64d  89
2025 01 15 16  14 19 51.781   -07 57 40.55  .11157 .97074  80.1 20.4  64d  89
2025 01 15 17  14 21 14.107   -08 05 36.18  .11077 .97016  79.8 20.4  64d  89
2025 01 15 18  14 22 37.682   -08 13 37.65  .10997 .96959  79.5 20.4  64d  89
2025 01 15 19  14 24 02.530   -08 21 45.02  .10918 .96902  79.1 20.4  64d  89
2025 01 15 20  14 25 28.673   -08 29 58.32  .10840 .96845  78.8 20.4  64d  89